Location: *
(46.0770°N, 1.6444°E)
Time: 14:39:07
(UTC+00:00)

CZ-4C R/B - Pass Details

Date: 16 September 2019
Orbit: 653 x 1349 km, 63.4° (Epoch: 21 October)

Event Time Altitude Azimuth Distance (km) Brightness Sun altitude
Rises 23:04:44 0° 321° (NW) 3,702 6.3 -40.5°
Reaches altitude 10° 23:07:23 10° 329° (NNW) 2,855 5.6 -40.6°
Enters shadow 23:12:50 37° 20° (NNE) 1,705 3.9 -40.8°
